Regional Weather Roundup
Issued by NWS Memphis, TN

Home | Current Version | Previous Version | Text Only | Print | Product List | Glossary On
Versions: 1 2 3 4 5 6 7 8 9 10 11 12 13 14 15 16 17 18 19 20 21 22 23 24 25 26 27 28 29 30 31 32 33 34 35 36 37 38 39 40 41 42 43 44 45 46 47 48 49 50
000
ASUS44 KMEG 010110
RWRMEG
MEMPHIS CWA HOURLY WEATHER ROUNDUP
NATIONAL WEATHER SERVICE MEMPHIS TN
800 PM CDT FRI JUL 31 2015

...WEST TENNESSEE...

CITY           SKY/WX    TMP DP  RH WIND       PRES   REMARKS
MEMPHIS INTL   PTCLDY    86  62  44 N8        30.02R
NWS MEMPHIS      N/A     85 N/A N/A MISG        N/A
JACKSON        CLEAR     82  65  56 N5        30.02R
LEXINGTON      CLEAR     79  66  65 CALM      30.02R
DYERSBURG        N/A    N/A N/A N/A MISG        N/A
PARIS          CLEAR     75  70  83 CALM      30.03S


...EASTERN ARKANSAS...

CITY           SKY/WX    TMP DP  RH WIND       PRES   REMARKS
JONESBORO      FAIR      79  70  74 NE3       30.01F
WEST MEMPHIS   CLEAR     83  69  62 N6        30.01R
BATESVILLE     CLEAR     82  70  65 CALM      30.03S
NEWPORT        FAIR      84  67  56 N5        30.03S
WALNUT RIDGE   FAIR      88  64  45 N3        30.01S
BLYTHEVILLE    FAIR      80  71  74 N6        30.02R
SEARCY         FAIR      81  70  69 CALM      30.04S
STUTTGART      FAIR      82  64  54 MISG      30.01F
PINE BLUFF     FAIR      84  65  52 NE6       30.01S
MONTICELLO     FAIR      86  66  51 N3        29.99F


...NORTH MISSISSIPPI...

CITY           SKY/WX    TMP DP  RH WIND       PRES   REMARKS
TUPELO         CLEAR     80  65  59 NE9       29.98S
OLIVE BRANCH   PTCLDY    82  66  57 N7        30.02R
TUNICA         CLEAR     81  66  61 N7        30.01S
CLARKSDALE     CLEAR     81  68  65 N5        30.01S
CORINTH        CLEAR     81  68  65 CALM      30.00R
GREENWOOD      CLEAR     81  66  60 N5        29.97R
COLUMBUS       CLEAR     83  66  56 N5        29.96R
STARKVILLE     FAIR      81  64  57 CALM      29.97R
GOLDEN TRIANGL CLEAR     84  63  48 N7        29.96R


...SOUTHEAST MISSOURI...

CITY           SKY/WX    TMP DP  RH WIND       PRES   REMARKS
WEST PLAINS    CLEAR     81  66  60 W3        30.09S
POPLAR BLUFF   CLEAR     83  71  67 CALM      30.00S
CAPE GIRARDEAU CLEAR     80  73  79 CALM      30.00F


...NORTHWEST ALABAMA...

CITY           SKY/WX    TMP DP  RH WIND       PRES   REMARKS
MUSCLE SHOALS  CLEAR     82  61  48 N5        30.00R


...MIDDLE TENNESSEE...

CITY           SKY/WX    TMP DP  RH WIND       PRES   REMARKS
NASHVILLE      FAIR      83  61  47 N8        30.02R
CLARKSVILLE    FAIR      80  67  64 N5        30.01S
COLUMBIA       CLEAR     82  63  51 N5        30.01R


...WESTERN KENTUCKY...

CITY           SKY/WX    TMP DP  RH WIND       PRES   REMARKS
PADUCAH        CLEAR     80  71  74 CALM      30.00S
FORT CAMPBELL  CLEAR     81  67  63 NW5       30.01S


...CENTRAL ARKANSAS...

CITY           SKY/WX    TMP DP  RH WIND       PRES   REMARKS
LITTLE ROCK    FAIR      87  64  46 E6        30.02S


SKY/WX REPORTED AS FAIR MEANS FEW OR NO CLOUDS BELOW
12 THOUSAND FEET.




USA.gov is the U.S. government's official web portal to all federal, state and local government web resources and services.